EGCCEGLC

Guest
Details From EGCC - Manchester
To EGLC - London City
Flight Number -
Tags Routegen
Created
Modified
Stats Distance 140 nm / 259 km
Max Altitude 0 ft / 0 m
Waypoints 2
Social Downloads 26
Likes 0
Share VATSIM

Download

Looking for another format? Having issues loading an existing format? Contact us
Advertisement - Login to hide

Notes

None

Route

EGCC EGLC

ID Type Via Altitude (ft/m) Position (lat/lon) Dist (leg/tot) Name
O EGCC APT - 0 / 0 53.34514 / -2.29274 - / 0 nm
O EGLC APT - 0 / 0 51.50558 / 0.04414 139 / 139 nm

Altitude Profile

Advertisement - Login to hide

EGCC

Details ICAO EGCC (MAN)
Name Manchester Intl
Region United Kingdom
Timezone Europe/London (UTC+0.0)
Stats Elevation 257 ft / 78 m (AMSL)
Location 53.347400° -2.283480°
Runways 2
Magnetic Variation 1.129° W

METAR

EGCC 242050Z AUTO VRB02KT 5000 BR OVC014 06/06 Q1020 TEMPO 4000 BR

Decode

TAF

TAF EGCC 241656Z 2418/2524 22008KT 9999 SCT012 BKN020 TEMPO 2418/2509 4000 -DZ BR BKN008 TEMPO 2518/2524 3000 RADZ BKN005

Decode

Departure Runways

ID Width Length Bearing (true/mag) Surface Threshold Overrun Markings Lighting
05L 151 ft / 46 m 9,980 ft / 3,042 m 51.00° / 52.13° ASPHALT 1,401 ft / 427 m 0 ft / 0 m PREC-APP CENTERLINE EDGE THRESHOLD ALSF-II TDZ REIL-UNI
05R 144 ft / 44 m 10,519 ft / 3,206 m 50.98° / 52.10° ASPHALT 0 ft / 0 m 0 ft / 0 m UK-PREC-APP CENTERLINE EDGE THRESHOLD ALSF-I REIL-UNI
23L 144 ft / 44 m 10,519 ft / 3,206 m 231.00° / 232.13° ASPHALT 1,093 ft / 333 m 0 ft / 0 m UK-PREC-APP CENTERLINE EDGE THRESHOLD ALSF-I REIL-UNI
23R 151 ft / 46 m 9,980 ft / 3,042 m 231.03° / 232.16° ASPHALT 597 ft / 182 m 200 ft / 61 m PREC-APP CENTERLINE EDGE THRESHOLD ALSF-II TDZ REIL-UNI

EGLC

Details ICAO EGLC (LCY)
Name London City
Region United Kingdom
Timezone Europe/London (UTC+0.0)
Stats Elevation 19 ft / 6 m (AMSL)
Location 51.505200° 0.055183°
Runways 1
Magnetic Variation 0.076° W

METAR

EGLC 242050Z AUTO 20005KT 120V240 7000 -RA OVC015 07/05 Q1022

Decode

TAF

Not found

Destination Runways

ID Width Length Bearing (true/mag) Surface Threshold Overrun Markings Lighting
09 98 ft / 30 m 4,914 ft / 1,498 m 92.88° / 92.95° ASPHALT 308 ft / 94 m 190 ft / 58 m UK-PREC-APP CENTERLINE EDGE THRESHOLD MALS REIL-OMNI
27 98 ft / 30 m 4,914 ft / 1,498 m 272.90° / 272.97° ASPHALT 233 ft / 71 m 302 ft / 92 m UK-PREC-APP CENTERLINE EDGE THRESHOLD MALS REIL-OMNI

Approach Navaids

Runway Type Ident Frequency Range Bearing (true/mag) Slope Elevation
09 LOC-ILS ILST 111.15 MHz 25 nm / 46 km 92.89° / 92.97 ° - 19 ft / 6 m (AMSL)
09 DME ILST 111.15 MHz 18 nm / 33 km - - 48 ft / 15 m (AMSL)
09 GS ILST 111.15 MHz 10 nm / 19 km 92.87° / 92.95 ° 5.50° 19 ft / 6 m (AMSL)
27 GS ILSR 111.15 MHz 10 nm / 19 km 272.87° / 272.95 ° 5.50° 19 ft / 6 m (AMSL)
27 DME ILSR 111.15 MHz 18 nm / 33 km - - 48 ft / 15 m (AMSL)
27 LOC-ILS ILSR 111.15 MHz 25 nm / 46 km 272.89° / 272.97 ° - 19 ft / 6 m (AMSL)

Popular Alternatives